Погода в Кембридже

США     42°23′09″N   71°08′30″W
В апреле 2022 года жителям России запретили посещать сайт meteo.paraplan.net по решению Генеральной прокуратуры. Аудитория сайта уменьшилась в 10 раз. Владельцы сайта не видят смысла в поддержке погодного сервера в таких условиях. Сайт будет закрыт в октябре.
темп.,
°C
ветер,
м/с
пор.,
м/с
влажн.,
%
обл.,
%
осадки,
мм/ч
давл.,
гПа
погр.,
м
4 октября, вт
вт423:00+8св277590 0.0 1024222
02:00+9ссв286898 0.0 1024443
05:00+9ссв41081100 0.0 1022491
08:00+10ссв31078100 0.0 1022510
11:00+14св5870100 0.0 1021853
14:00+13св5107499 0.1 1019666
17:00+13св5107899 0.0 1018686
20:00+12св4128697 0.0 1019571
5 октября, ср
ср523:00+12ссв41290100 0.6 1018553
02:00+12ссв41194100 1.1 1017518
05:00+10ссв41296100 0.6 1016471
08:00+10ссв31292100 0.6 1016500
11:00+15св5971100 0.1 1016683
14:00+15св41074100 0.3 1015636
17:00+14ссв3108099 0.7 1014522
20:00+13ссв3991100 1.4 1015473
6 октября, чт
чт623:00+12с2898100 5.3 1015361
02:00+12ссз259765 5.5 1014192
05:00+9ссз24965 0.0 101491
08:00+10ссз24900 0.0 1015113
11:00+18с23510 0.0 1015479
14:00+22ссв113417 0.0 1013976
17:00+20юв115072 0.0 101347
20:00+14ююв2360100 0.0 101452
7 октября, пт
пт723:00+13ююз2371100 0.0 101452
02:00+13ююз2369100 0.0 101362
05:00+12ююз247797 0.0 101283
08:00+13ююз27775 0.0 1012185
11:00+21юз35545 0.0 1011749
14:00+24зюз47395 0.0 10091923
17:00+22юз494964 0.0 1008865
20:00+12зсз5138099 0.3 1012632
8 октября, сб
сб823:00+9зсз511692 0.0 1014852
02:00+7зсз511625 0.0 1015935
05:00+5зсз411625 0.0 1016943
08:00+5зсз411625 0.0 1018961
11:00+10зсз58380 0.0 10181360
14:00+13з57280 0.0 10171696
17:00+12з473664 0.0 10161572
20:00+8з411455 0.0 1019615